Date String (YYYY-MM-DD hh:mm:ss) UTC,Instrument flags,Ambient pressure (hPa),Sample flow (lpm),Bypass flow (lpm),Sample temperature (°C),Ambient temperature (°C),ASC tube jacket temperature (°C),LED temperature (°C),Box temperature (°C),Sample RH (%),Span deviation,Mass concentration (μg/m³),Mass concentration (μg/m³),Mass concentration (μg/m³)
DateTimeUTC,F1_M11,P_M11,Q1_M11,Q2_M11,T1_M11,T2_M11,T3_M11,T4_M11,T5_M11,U1_M11,ZSPAN_M11,X0_M11,X2_M11,X1_M11
2022-02-02 09:00:00,,0824.4,5.00,0.00,22.2,22.3,00.0,31.1,24.0,07.3,0000.0,0003.26,0002.05,0001.42
2022-02-02 09:01:00,,0824.4,5.01,0.00,22.1,21.8,00.0,31.1,23.8,07.3,0000.0,0003.32,0002.05,0001.42
2022-02-02 09:02:00,,0824.4,5.00,0.00,22.1,21.4,00.0,31.1,23.7,07.3,0000.0,0003.30,0002.01,0001.41
2022-02-02 09:03:00,,0824.3,4.99,0.00,22.0,21.2,00.0,31.0,23.6,07.4,0000.0,0003.17,0001.95,0001.40
2022-02-02 09:04:00,,0824.3,5.02,0.00,21.9,20.9,00.0,31.0,23.5,07.4,0000.0,0003.09,0001.95,0001.39
2022-02-02 09:05:00,,0824.3,4.99,0.00,21.9,20.8,00.0,31.0,23.4,07.4,0000.0,0003.01,0001.90,0001.38
2022-02-02 09:06:00,,0824.4,5.01,0.00,21.9,21.5,00.0,31.0,23.5,07.4,0000.0,0002.87,0001.83,0001.37
2022-02-02 09:07:00,,0824.4,5.00,0.00,22.0,22.4,00.0,31.0,23.8,07.3,0000.0,0003.32,0001.83,0001.37
2022-02-02 09:08:00,,0824.4,4.99,0.00,22.2,22.9,00.0,31.1,24.1,07.3,0000.0,0003.96,0001.85,0001.37
2022-02-02 09:09:00,,0824.4,5.00,0.00,22.2,22.5,00.0,31.1,24.1,07.2,0000.0,0004.06,0001.87,0001.36
2022-02-02 09:10:00,,0824.4,5.00,0.00,22.2,22.1,00.0,31.1,23.9,07.2,0000.0,0004.02,0001.84,0001.35
2022-02-02 09:11:00,,0824.4,5.00,0.00,22.1,21.6,00.0,31.1,23.8,07.2,0000.0,0004.03,0001.85,0001.34
2022-02-02 09:12:00,,0824.4,5.02,0.00,22.1,21.2,00.0,31.1,23.6,07.3,0000.0,0003.98,0001.84,0001.32
2022-02-02 09:13:00,,0824.4,4.99,0.00,22.0,21.0,00.0,31.0,23.5,07.3,0000.0,0003.95,0001.84,0001.32
2022-02-02 09:14:00,,0824.5,5.01,0.00,21.9,20.8,00.0,31.0,23.4,07.3,0000.0,0004.02,0001.86,0001.33
2022-02-02 09:15:00,,0824.5,4.99,0.00,21.9,20.7,00.0,31.0,23.4,07.3,0000.0,0004.06,0001.86,0001.35
2022-02-02 09:16:00,,0824.4,5.00,0.00,21.9,21.3,00.0,31.0,23.5,07.3,0000.0,0004.09,0001.87,0001.36
2022-02-02 09:17:00,,0824.5,5.00,0.00,22.0,22.3,00.0,31.0,23.7,07.3,0000.0,0004.11,0001.89,0001.37
2022-02-02 09:18:00,,0824.5,5.00,0.00,22.1,22.9,00.0,31.1,24.0,07.2,0000.0,0003.88,0001.90,0001.38
2022-02-02 09:19:00,,0824.5,5.00,0.00,22.2,22.6,00.0,31.1,24.0,07.2,0000.0,0003.04,0001.88,0001.38
2022-02-02 09:20:00,,0824.5,5.00,0.00,22.2,22.3,00.0,31.1,24.0,07.2,0000.0,0002.97,0001.85,0001.37
2022-02-02 09:21:00,,0824.5,4.99,0.00,22.2,21.9,00.0,31.1,23.9,07.2,0000.0,0003.05,0001.85,0001.37
2022-02-02 09:22:00,,0824.5,5.01,0.00,22.1,21.5,00.0,31.1,23.7,07.2,0000.0,0003.13,0001.85,0001.38
2022-02-02 09:23:00,,0824.5,5.01,0.00,22.0,21.2,00.0,31.1,23.6,07.2,0000.0,0003.06,0001.82,0001.37
2022-02-02 09:24:00,,0824.5,4.98,0.00,22.0,21.0,00.0,31.0,23.5,07.2,0000.0,0003.09,0001.83,0001.36
2022-02-02 09:25:00,,0824.5,5.01,0.00,21.9,20.8,00.0,31.0,23.4,07.3,0000.0,0003.20,0001.79,0001.35
2022-02-02 09:26:00,,0824.5,4.99,0.00,21.9,20.7,00.0,31.0,23.4,07.3,0000.0,0003.63,0001.78,0001.33
2022-02-02 09:27:00,,0824.5,5.02,0.00,21.9,21.1,00.0,31.0,23.4,07.3,0000.0,0003.59,0001.76,0001.30
2022-02-02 09:28:00,,0824.5,5.00,0.00,22.0,22.1,00.0,31.0,23.7,07.3,0000.0,0003.56,0001.72,0001.29
2022-02-02 09:29:00,,0824.5,4.99,0.00,22.1,22.9,00.0,31.1,24.0,07.2,0000.0,0003.51,0001.69,0001.27
2022-02-02 09:30:00,,0824.4,5.01,0.00,22.2,22.7,00.0,31.1,24.1,07.1,0000.0,0003.65,0001.74,0001.27
2022-02-02 09:31:00,,0824.4,5.01,0.00,22.2,22.3,00.0,31.1,24.0,07.1,0000.0,0003.66,0001.73,0001.28
2022-02-02 09:32:00,,0824.4,5.00,0.00,22.2,21.8,00.0,31.1,23.9,07.1,0000.0,0003.55,0001.73,0001.28
2022-02-02 09:33:00,,0824.4,4.99,0.00,22.1,21.5,00.0,31.1,23.7,07.2,0000.0,0003.47,0001.73,0001.28
2022-02-02 09:34:00,,0824.5,5.01,0.00,22.1,21.3,00.0,31.1,23.7,07.2,0000.0,0003.51,0001.74,0001.27
2022-02-02 09:35:00,,0824.4,4.99,0.00,22.0,21.1,00.0,31.0,23.6,07.2,0000.0,0003.44,0001.72,0001.25
2022-02-02 09:36:00,,0824.4,5.01,0.00,22.0,21.0,00.0,31.0,23.5,07.2,0000.0,0003.22,0001.68,0001.25
2022-02-02 09:37:00,,0824.4,4.99,0.00,21.9,20.8,00.0,31.0,23.5,07.2,0000.0,0002.73,0001.66,0001.25
2022-02-02 09:38:00,,0824.4,5.01,0.00,21.9,21.0,00.0,31.0,23.5,07.2,0000.0,0002.93,0001.69,0001.26
2022-02-02 09:39:00,,0824.4,5.00,0.00,22.0,22.0,00.0,31.0,23.7,07.2,0000.0,0003.15,0001.74,0001.25
2022-02-02 09:40:00,,0824.8,5.00,0.00,22.1,22.8,00.0,31.0,24.0,07.1,0000.0,0003.24,0001.76,0001.24
2022-02-02 09:41:00,,0824.4,5.00,0.00,22.2,22.8,00.0,31.1,24.1,07.1,0000.0,0003.30,0001.76,0001.24
2022-02-02 09:42:00,,0824.4,5.00,0.00,22.2,22.5,00.0,31.1,24.1,07.1,0000.0,0003.24,0001.78,0001.22
2022-02-02 09:43:00,,0824.4,4.99,0.00,22.2,22.1,00.0,31.1,24.0,07.1,0000.0,0003.31,0001.79,0001.22
2022-02-02 09:44:00,,0824.5,5.00,0.00,22.2,21.8,00.0,31.1,23.9,07.1,0000.0,0003.30,0001.76,0001.21
2022-02-02 09:45:00,,0824.5,5.00,0.00,22.2,21.5,00.0,31.1,23.8,07.1,0000.0,0003.60,0001.73,0001.21
2022-02-02 09:46:00,,0824.5,5.01,0.00,22.1,21.3,00.0,31.1,23.7,07.1,0000.0,0003.64,0001.72,0001.22
2022-02-02 09:47:00,,0824.5,5.00,0.00,22.1,21.2,00.0,31.1,23.7,07.1,0000.0,0003.75,0001.73,0001.22
2022-02-02 09:48:00,,0824.5,4.99,0.00,22.0,21.1,00.0,31.1,23.6,07.1,0000.0,0003.69,0001.76,0001.21
2022-02-02 09:49:00,,0824.5,5.00,0.00,22.0,21.0,00.0,31.0,23.6,07.2,0000.0,0003.54,0001.76,0001.21
2022-02-02 09:50:00,,0824.5,5.02,0.00,21.9,21.0,00.0,31.0,23.5,07.2,0000.0,0003.36,0001.71,0001.20
2022-02-02 09:51:00,,0824.5,4.99,0.00,22.0,21.4,00.0,31.0,23.6,07.2,0000.0,0003.22,0001.67,0001.20
2022-02-02 09:52:00,,0824.5,5.01,0.00,22.1,22.2,00.0,31.0,23.8,07.1,0000.0,0003.11,0001.65,0001.19
2022-02-02 09:53:00,,0824.5,4.99,0.00,22.2,23.0,00.0,31.1,24.1,07.1,0000.0,0003.15,0001.65,0001.19
2022-02-02 09:54:00,,0824.5,5.01,0.00,22.3,22.9,00.0,31.1,24.2,07.0,0000.0,0003.09,0001.63,0001.18
2022-02-02 09:55:00,,0824.5,5.01,0.00,22.3,22.6,00.0,31.1,24.2,07.0,0000.0,0003.19,0001.67,0001.19
2022-02-02 09:56:00,,0824.5,5.00,0.00,22.3,22.2,00.0,31.1,24.1,07.0,0000.0,0002.99,0001.70,0001.20
2022-02-02 09:57:00,,0824.5,4.99,0.00,22.3,21.9,00.0,31.1,24.0,07.0,0000.0,0003.00,0001.74,0001.21
2022-02-02 09:58:00,,0824.5,5.02,0.00,22.2,21.7,00.0,31.1,23.9,07.0,0000.0,0003.02,0001.81,0001.22
2022-02-02 09:59:00,,0824.5,4.99,0.00,22.2,21.4,00.0,31.1,23.8,07.1,0000.0,0003.08,0001.80,0001.23
